,

(GMT )
Entrance

Weather History for CWEL - October, 2012

Change the Weather History Date:

Wednesday, October 24, 2012

  Actual Average Record
Temperature  
Mean Temperature 46 °F -  
Max Temperature 48 °F - - ()
Min Temperature 44 °F - - ()
Degree Days  
Heating Degree Days 19    
Moisture  
Dew Point -    
Average Humidity    
Maximum Humidity    
Minimum Humidity    
Precipitation  
Precipitation 0.08 in - - ()
Sea Level Pressure  
Sea Level Pressure 29.97 in    
Wind  
Wind Speed 11 mph ()    
Max Wind Speed 23 mph    
Max Gust Speed 23 mph    
T = Trace of Precipitation, MM = Missing Value Source: Averaged Metar Reports

Daily Weather History Graph

Daily Weather History Graph

Search for Another Location

Airport or City:

Trip Planner

Search our weather history database for the weather conditions in past years. The results will help you decide how hot, cold, wet, or windy it might be!

Date:

Astronomy

Oct. 24, 2012 Rise Set
Actual Time 7:51 AM PDT 6:06 PM PDT
Civil Twilight 7:18 AM PDT 6:39 PM PDT
Nautical Twilight 6:41 AM PDT 7:16 PM PDT
Astronomical Twilight 6:04 AM PDT 7:53 PM PDT
Moon 3:46 PM PDT (10/24) 2:27 AM PDT (10/24)
Length of Visible Light 11h 20m
Length of Day
10h 15m
Waxing Gibbous, 77% of the Moon is Illuminated
Oct 24
Waxing Gibbous
Oct 29
Full
Nov 6
Last Quarter
Nov 13
New
Nov 20
First Quarter

Hourly Weather History & Observations

Time (PDT) Temp. Windchill Dew Point Humidity Pressure Visibility Wind Dir Wind Speed Gust Speed Precip Events Conditions
12:00 AM 47.7 °F - - N/A% 29.83 in - ESE 23.0 mph - N/A   Unknown
1:00 AM 47.1 °F - - N/A% 29.83 in - East 17.3 mph 23.0 mph N/A   Unknown
2:00 AM 48.0 °F - - N/A% 29.84 in - East 16.1 mph - N/A   Unknown
4:00 AM 46.4 °F 41.9 °F - N/A% 29.85 in - SSE 9.2 mph - N/A   Unknown
5:00 AM 45.5 °F 40.3 °F - N/A% 29.85 in - South 10.4 mph - N/A   Unknown
6:00 AM 44.8 °F 39.4 °F - N/A% 29.86 in - SSE 10.4 mph - 0.02 in   Unknown
7:00 AM 44.8 °F 38.0 °F - N/A% 29.88 in - SSE 15.0 mph - 0.02 in   Unknown
8:00 AM 44.8 °F 39.9 °F - N/A% 29.90 in - SSE 9.2 mph - 0.02 in   Unknown
9:00 AM 45.0 °F 40.6 °F - N/A% 29.91 in - SE 8.1 mph - 0.01 in   Unknown
10:00 AM 45.3 °F 37.6 °F - N/A% 29.93 in - SE 19.6 mph - 0.02 in   Unknown
11:00 AM 45 °F - - % 29.95 in - SSE 16.1 mph - -  
11:00 AM 44.6 °F 37.4 °F - N/A% 29.95 in - SSE 16.1 mph - 0.01 in   Unknown
12:00 PM 44.4 °F 38.6 °F - N/A% 29.96 in - SSE 11.5 mph - N/A   Unknown
1:00 PM 44.4 °F 39.0 °F - N/A% 29.98 in - South 10.4 mph - 0.01 in   Unknown
2:00 PM 44.4 °F 37.9 °F - N/A% 29.99 in - SE 13.8 mph - 0.01 in   Unknown
3:00 PM 44.2 °F 39.2 °F - N/A% 30.01 in - SSE 9.2 mph - 0.01 in   Unknown
4:00 PM 44.6 °F - - N/A% 30.02 in - East 1.2 mph - N/A   Unknown
5:00 PM 45.0 °F - - N/A% 30.04 in - NW 1.2 mph - N/A   Unknown
6:00 PM 44.8 °F 42.4 °F - N/A% 30.06 in - West 4.6 mph - N/A   Unknown
7:00 PM 45.9 °F - - N/A% 30.07 in - ESE 1.2 mph - N/A   Unknown
8:00 PM 45.3 °F - - N/A% 30.09 in - NW 1.2 mph - N/A   Unknown
9:00 PM 45.0 °F - - N/A% 30.11 in - WNW 2.3 mph - N/A   Unknown
10:00 PM 45.3 °F 44.0 °F - N/A% 30.13 in - WNW 3.5 mph - N/A   Unknown
11:00 PM 45 °F - - % 30.15 in - West 4.6 mph - -  
11:00 PM 45.0 °F 42.6 °F - N/A% 30.15 in - West 4.6 mph - N/A   Unknown